| time (UTC) | temp F | wind direction | speed knots | gust knots | rain 1hr in | rain 24hr in | rain mn in | humidity % | barometer mb |
| 20260505032820 | 76 | 183 | 2.6 | 5.2 | 0.00 | 0.00 | 0.00 | 36 | 1018.6 |
| 20260505031522 | 75 | 197 | 3.5 | 5.2 | 0.00 | 0.00 | 0.00 | 37 | 1018.8 |
| 20260505030221 | 74 | 91 | 1.7 | 3.5 | 0.00 | 0.00 | 0.00 | 38 | 1019.0 |
| 20260505024921 | 75 | 175 | 0.0 | 1.7 | 0.00 | 0.00 | 0.00 | 37 | 1019.2 |
| 20260505023620 | 74 | 213 | 1.7 | 2.6 | 0.00 | 0.00 | 0.00 | 38 | 1019.5 |
| 20260505022321 | 74 | 177 | 1.7 | 3.5 | 0.00 | 0.00 | 0.00 | 37 | 1019.8 |
| 20260505021021 | 74 | 163 | 3.5 | 7.0 | 0.00 | 0.00 | 0.00 | 37 | 1019.8 |
| 20260505015721 | 74 | 223 | 3.5 | 7.8 | 0.00 | 0.00 | 0.00 | 37 | 1019.9 |
| 20260505014421 | 73 | 178 | 2.6 | 3.5 | 0.00 | 0.00 | 0.00 | 39 | 1019.9 |
| 20260505013120 | 73 | 203 | 3.5 | 5.2 | 0.00 | 0.00 | 0.00 | 40 | 1019.9 |
| 20260505011821 | 71 | 159 | 1.7 | 5.2 | 0.00 | 0.00 | 0.00 | 40 | 1020.0 |
| 20260505011202 | 70 | 173 | 1.7 | 3.5 | 0.00 | 0.00 | 0.00 | 42 | 1020.1 |
| 20260505010520 | 70 | 235 | 3.5 | 3.5 | 0.00 | 0.00 | 0.00 | 43 | 1020.0 |
| 20260505005222 | 70 | 178 | 0.9 | 3.5 | 0.00 | 0.00 | 0.00 | 52 | 1020.0 |
| 20260505003921 | 69 | 213 | 4.3 | 7.0 | 0.00 | 0.00 | 0.00 | 54 | 1020.0 |
| 20260505002621 | 68 | 174 | 0.9 | 0.9 | 0.00 | 0.00 | 0.00 | 58 | 1020.0 |
| 20260505001321 | 67 | 216 | 3.5 | 5.2 | 0.00 | 0.00 | 0.00 | 60 | 1020.0 |
| 20260505000021 | 66 | 201 | 1.7 | 2.6 | 0.00 | 0.00 | 0.00 | 61 | 1020.1 |
| 20260504234720 | 65 | 192 | 1.7 | 2.6 | 0.00 | 0.00 | 0.00 | 66 | 1020.1 |
| 20260504233421 | 64 | 198 | 3.5 | 4.3 | 0.00 | 0.00 | 0.00 | 67 | 1020.2 |
| 20260504232120 | 64 | 167 | 2.6 | 5.2 | 0.00 | 0.00 | 0.00 | 69 | 1020.2 |
| 20260504230822 | 62 | 202 | 2.6 | 1.7 | 0.00 | 0.00 | 0.00 | 70 | 1020.1 |
| 20260504225520 | 62 | 180 | 2.6 | 5.2 | 0.00 | 0.00 | 0.00 | 71 | 1019.9 |
| 20260504224221 | 60 | 160 | 1.7 | 4.3 | 0.00 | 0.00 | 0.00 | 75 | 1019.8 |
| 20260504222920 | 58 | 199 | 1.7 | 3.5 | 0.00 | 0.00 | 0.00 | 81 | 1019.8 |
| 20260504221620 | 56 | 205 | 0.0 | 1.7 | 0.00 | 0.00 | 0.00 | 88 | 1019.9 |
| 20260504220321 | 55 | 213 | 0.0 | 0.0 | 0.00 | 0.00 | 0.00 | 91 | 1019.8 |
| 20260504215021 | 53 | 213 | 0.0 | 0.9 | 0.00 | 0.00 | 0.00 | 93 | 1019.8 |
| 20260504213720 | 52 | 213 | 0.9 | 2.6 | 0.00 | 0.00 | 0.00 | 93 | 1019.7 |
| 20260504212422 | 51 | 213 | 0.9 | 2.6 | 0.00 | 0.00 | 0.00 | 93 | 1019.7 |
| 20260504211121 | 51 | 213 | 0.0 | 0.9 | 0.00 | 0.00 | 0.00 | 93 | 1019.6 |
| 20260504205821 | 51 | 175 | 0.9 | 2.6 | 0.00 | 0.00 | 0.00 | 93 | 1019.3 |
| 20260504204521 | 51 | 175 | 0.0 | 1.7 | 0.00 | 0.00 | 0.00 | 93 | 1019.2 |
| 20260504203220 | 51 | 175 | 0.0 | 0.9 | 0.00 | 0.00 | 0.00 | 93 | 1019.2 |
| 20260504201922 | 51 | 175 | 0.0 | 1.7 | 0.00 | 0.00 | 0.00 | 93 | 1019.1 |
| 20260504200621 | 51 | 175 | 0.0 | 1.7 | 0.00 | 0.00 | 0.00 | 93 | 1019.0 |
| 20260504195321 | 51 | 175 | 0.0 | 0.9 | 0.00 | 0.00 | 0.00 | 93 | 1018.8 |
| 20260504194020 | 51 | 175 | 0.0 | 0.9 | 0.00 | 0.00 | 0.00 | 93 | 1018.9 |
| 20260504192720 | 51 | 175 | 0.9 | 1.7 | 0.00 | 0.00 | 0.00 | 93 | 1018.7 |
| 20260504191420 | 52 | 175 | 0.0 | 0.9 | 0.00 | 0.00 | 0.00 | 92 | 1018.6 |
| 20260504190121 | 52 | 175 | 0.9 | 2.6 | 0.00 | 0.00 | 0.00 | 93 | 1018.6 |
| 20260504184821 | 52 | 175 | 0.9 | 1.7 | 0.00 | 0.00 | 0.00 | 92 | 1018.5 |
| 20260504183520 | 52 | 175 | 0.9 | 1.7 | 0.00 | 0.00 | 0.00 | 92 | 1018.5 |
| 20260504182221 | 52 | 175 | 0.0 | 0.9 | 0.00 | 0.00 | 0.00 | 92 | 1018.4 |
| 20260504180920 | 53 | 175 | 0.9 | 1.7 | 0.00 | 0.00 | 0.00 | 91 | 1018.4 |
| 20260504175622 | 53 | 175 | 0.9 | 1.7 | 0.00 | 0.00 | 0.00 | 91 | 1018.3 |
| 20260504174322 | 53 | 175 | 0.9 | 1.7 | 0.00 | 0.00 | 0.00 | 91 | 1018.2 |
| 20260504173021 | 53 | 175 | 0.0 | 0.9 | 0.00 | 0.00 | 0.00 | 91 | 1018.2 |
| 20260504171721 | 53 | 175 | 0.9 | 3.5 | 0.00 | 0.00 | 0.00 | 90 | 1018.1 |
| 20260504170420 | 54 | 174 | 0.9 | 3.5 | 0.00 | 0.00 | 0.00 | 90 | 1018.0 |
| 20260504150721 | 56 | 172 | 0.9 | 1.7 | 0.00 | 0.00 | 0.00 | 87 | 1017.9 |
| 20260504140220 | 56 | 164 | 0.9 | 2.6 | 0.00 | 0.00 | 0.00 | 85 | 1017.9 |
| 20260504081120 | 65 | 272 | 7.8 | 9.6 | 0.00 | 0.06 | 0.00 | 60 | 1014.7 |
| 20260504060122 | 66 | 271 | 7.0 | 12.2 | 0.00 | 0.29 | 0.00 | 51 | 1014.3 |
| 20260504045621 | 68 | 247 | 11.3 | 14.8 | 0.00 | 0.63 | 0.00 | 49 | 1013.4 |
| 20260504044321 | 68 | 278 | 5.2 | 10.4 | 0.00 | 0.64 | 0.00 | 48 | 1013.4 |
| 20260504043020 | 67 | 225 | 3.5 | 5.2 | 0.00 | 0.66 | 0.00 | 53 | 1013.6 |
| 20260504041721 | 67 | 273 | 8.7 | 12.2 | 0.00 | 0.70 | 0.00 | 52 | 1013.2 |
| 20260504040420 | 67 | 289 | 6.1 | 9.6 | 0.00 | 0.70 | 0.00 | 52 | 1013.5 |
| 20260504035121 | 67 | 262 | 5.2 | 16.5 | 0.00 | 0.72 | 0.00 | 52 | 1013.4 |
| 20260504033821 | 67 | 275 | 2.6 | 10.4 | 0.00 | 0.72 | 0.00 | 55 | 1013.3 |